Weather History for Evanston, WY

Change the Weather History Date:

Friday, July 5, 2013

  Actual Average Record
Temperature  
Mean Temperature 69 °F 64 °F  
Max Temperature 83 °F 78 °F 90 °F (2007)
Min Temperature 54 °F 50 °F 42 °F (2010)
Degree Days  
Heating Degree Days 0 2  
Month to date heating degree days 0 13  
Since 1 June heating degree days 133 243  
Since 1 July heating degree days 0 13  
Cooling Degree Days 4 1  
Month to date cooling degree days 34 5  
Year to date cooling degree days 89 19  
Since 1 June cooling degree days 89 18  
Growing Degree Days 18 (Base 50)    
Moisture  
Dew Point 47 °F    
Average Humidity 54    
Maximum Humidity 83    
Minimum Humidity 24    
Precipitation  
Precipitation T in 0.04 in 0.01 in (2006)
Month to date precipitation T 0.22  
Year to date precipitation 2.01 6.39  
Sea Level Pressure  
Sea Level Pressure 29.85 in    
Wind  
Wind Speed 10 mph (WSW)    
Max Wind Speed 21 mph    
Max Gust Speed 29 mph    
Visibility 10 miles    
Events Rain , Thunderstorm    
T = Trace of Precipitation, MM = Missing Value Source: NWS Daily Summary

Daily Weather History Graph

Daily Weather History Graph

Search for Another Location

Airport:

Trip Planner

Search our weather history database for the weather conditions in past years. The results will help you decide how hot, cold, wet, or windy it might be!

Date:

Astronomy

Jul. 05, 2013 Rise Set
Actual Time 5:57 AM MDT 9:00 PM MDT
Civil Twilight 5:23 AM MDT 9:33 PM MDT
Nautical Twilight 4:41 AM MDT 10:16 PM MDT
Astronomical Twilight 3:50 AM MDT 11:06 PM MDT
Moon 3:59 AM MDT (7/5) 6:57 PM MDT (7/5)
Length of Visible Light 16h 09m
Length of Day
15h 02m
Waning Crescent, 6% of the Moon is Illuminated
Jul 5
Waning Crescent
Jul 8
New
Jul 15
First Quarter
Jul 22
Full
Jul 29
Last Quarter

Hourly Weather History & Observations

Time (MDT) Temp. Dew Point Humidity Pressure Visibility Wind Dir Wind Speed Gust Speed Precip Events Conditions
12:53 AM 64.9 °F 48.9 °F 56% 29.80 in 10.0 mi Variable 4.6 mph - N/A   Clear
1:53 AM 63.0 °F 50.0 °F 63% 29.79 in 10.0 mi South 3.5 mph - N/A   Clear
2:53 AM 60.1 °F 48.9 °F 67% 29.82 in 10.0 mi Variable 6.9 mph - N/A   Clear
3:53 AM 59.0 °F 48.9 °F 69% 29.85 in 10.0 mi SW 17.3 mph - N/A   Scattered Clouds
4:53 AM 57.0 °F 52.0 °F 83% 29.86 in 10.0 mi SSW 15.0 mph 25.3 mph 0.00 in Rain Light Rain
5:53 AM 55.0 °F 50.0 °F 83% 29.83 in 10.0 mi SW 6.9 mph - 0.00 in   Clear
6:53 AM 55.0 °F 51.1 °F 86% 29.81 in 10.0 mi West 3.5 mph - N/A   Partly Cloudy
7:53 AM 57.9 °F 50.0 °F 75% 29.82 in 10.0 mi Calm Calm - N/A   Clear
8:53 AM 62.1 °F 52.0 °F 70% 29.83 in 10.0 mi SSW 12.7 mph - N/A   Clear
9:53 AM 68.0 °F 52.0 °F 56% 29.81 in 10.0 mi SW 15.0 mph 25.3 mph N/A   Clear
10:53 AM 73.0 °F 48.9 °F 42% 29.79 in 10.0 mi WSW 17.3 mph - N/A   Clear
11:53 AM 75.9 °F 50.0 °F 40% 29.81 in 10.0 mi West 15.0 mph 24.2 mph N/A   Clear
12:53 PM 78.1 °F 48.9 °F 36% 29.79 in 10.0 mi WSW 13.8 mph 20.7 mph N/A   Clear
1:53 PM 80.1 °F 46.9 °F 31% 29.78 in 10.0 mi West 16.1 mph 21.9 mph N/A   Mostly Cloudy
2:53 PM 81.0 °F 44.1 °F 27% 29.77 in 10.0 mi West 21.9 mph 35.7 mph N/A   Partly Cloudy
3:53 PM 81.0 °F 43.0 °F 26% 29.75 in 10.0 mi WSW 13.8 mph 21.9 mph N/A   Partly Cloudy
4:53 PM 82.9 °F 39.9 °F 22% 29.73 in 10.0 mi West 13.8 mph 20.7 mph N/A   Clear
5:53 PM 79.0 °F 41.0 °F 26% 29.75 in 10.0 mi WSW 11.5 mph 24.2 mph N/A   Clear
6:53 PM 75.9 °F 41.0 °F 29% 29.77 in 10.0 mi West 18.4 mph - N/A   Clear
7:53 PM 73.0 °F 45.0 °F 37% 29.81 in 10.0 mi West 25.3 mph 31.1 mph N/A   Mostly Cloudy
8:10 PM 71.6 °F 48.2 °F 43% 30.11 in 10.0 mi West 18.4 mph - 0.00 in Rain , Thunderstorm Light Rain
8:25 PM 69.8 °F 46.4 °F 43% 30.10 in 10.0 mi SW 10.4 mph - 0.00 in   Mostly Cloudy
8:53 PM 66.0 °F 46.0 °F 48% 29.86 in 10.0 mi SW 11.5 mph - 0.00 in   Mostly Cloudy
9:26 PM 62.6 °F 44.6 °F 52% 30.16 in 10.0 mi North 12.7 mph 25.3 mph N/A   Scattered Clouds
9:53 PM 62.1 °F 46.0 °F 56% 29.90 in 10.0 mi North 19.6 mph 28.8 mph N/A   Clear
10:53 PM 57.9 °F 46.0 °F 65% 29.90 in 10.0 mi North 9.2 mph - N/A   Partly Cloudy
11:53 PM 57.0 °F 46.0 °F 67% 29.87 in 10.0 mi SSE 4.6 mph - N/A   Clear